Location: Unspecified
(48.7670°N, 0.0000°E)
Time: 16:12:24
(UTC+00:00)

Altair - Pass Details

Date: 26 June 2019
Orbit: 1501 x 1683 km, 47.2° (Epoch: 15 July)

Event Time Altitude Azimuth Distance (km) Brightness Sun altitude
Rises 22:57:14 0° 281° (W) 4,772 10.5 -16.4°
Reaches altitude 10° 23:00:17 10° 280° (W) 3,811 9.9 -16.5°
Maximum altitude 23:09:58 71° 199° (SSW) 1,716 7.5 -16.9°
Drops below altitude 10° 23:19:58 10° 118° (ESE) 3,926 9.3 -17.3°
Sets 23:23:10 0° 116° (ESE) 4,923 9.8 -17.3°
